Location: Newark
(44.2886°N, 4.8431°E)
Time: 14:16:29
(UTC+00:00)

Envisat - Visible Passes

Search period start: 18 September 2020 00:00
Search period end: 28 September 2020 00:00
Orbit: 764 x 766 km, 98.1° (Epoch: 18 September)

Date Brightness Start Highest point End Pass type
(mag) Time Alt. Az. Time Alt. Az. Time Alt. Az.
18 Sep 6.1 04:32:34 10° NE 04:35:37 16° E 04:38:40 10° SE visible
19 Sep 6.6 18:32:21 10° WSW 18:34:02 11° W 18:35:43 10° WNW visible
20 Sep 5.6 04:57:02 10° NE 05:01:20 27° E 05:05:36 10° SSE visible
21 Sep 6.4 04:22:01 10° ENE 04:24:07 12° E 04:26:13 10° ESE visible
22 Sep 6.3 18:19:42 10° WSW 18:22:31 15° W 18:25:22 10° NW visible
23 Sep 5.9 04:45:59 10° NE 04:49:53 22° E 04:53:44 10° SE visible
25 Sep 6.1 18:07:31 10° SW 18:11:02 19° W 18:14:34 10° NW visible
26 Sep 6.1 04:35:04 10° NE 04:38:23 17° E 04:41:42 10° SE visible
27 Sep 6.7 18:35:56 10° W 18:36:48 10° W 18:37:41 10° WNW visible
